Volver al catálogo

STARLINK-32017

ActivoComunicacionesVLEO
NORAD 60032·PAYLOAD·🇺🇸 United States

Lanzado Jun 8, 2024 desde Cape Canaveral Space Force Station

Loading…

Próximos Pases (próximas 24 horas)

TLE

ActualizadoSource: CelesTrak SupGP

Época: Sep 14, 2026, 21:04 UTC

1 60032C 24111S   26257.87826389  .00040274  00000+0  11902-2 0  2571
2 60032  53.1584 276.1418 0001264  89.5566 124.4442 15.34363283    10

Sigue STARLINK-32017 en tiempo real con AllMySat

Download on the App Store